Regional Weather Roundup
Issued by NWS

Home | Current Version | Previous Version | Text Only | Print | Product List | Glossary On
Versions: 1 2 3 4 5 6 7 8 9 10 11 12 13 14 15 16 17 18 19 20 21 22 23 24 25 26 27 28 29 30 31 32 33 34 35 36 37 38 39 40 41 42 43 44 45 46 47 48 49 50
000
ASCA42 TJSJ 231711
RWRPR
PUERTO RICO/U.S. VIRGIN ISLANDS HOURLY WEATHER ROUNDUP
NATIONAL WEATHER SERVICE SAN JUAN PR
100 PM AST SUN NOV 23 2014

PRZ001-004-231800-
PUERTO RICO

CITY           SKY/WX    TMP DP  RH WIND       PRES   REMARKS
SAN JUAN LMM   MOSUNNY   88  73  62 E16       30.00F HX  96
PONCE          MOSUNNY   88  75  66 SE12      29.95F HX  97
AGUADILLA      MOSUNNY   84  73  70 E18       30.03F HX  91
CEIBA          SUNNY     86  72  62 E17G24    30.04F HX  92
$$

PRZ006-007-231800-
U.S. VIRGIN ISLANDS

CITY           SKY/WX    TMP DP  RH WIND       PRES   REMARKS
CHARLOTTE AMA  MOSUNNY   84  70  61 E14       30.01
$$

HOURLY WEATHER ROUNDUP FOR THE NEWS MEDIA

CITY           SKY/WX    TMP DP  RH WIND       PRES   REMARKS
MIAMI          PTSUNNY   82  73  74 SE17G25   30.01F
ORLANDO        CLOUDY    80  72  76 S14G23    29.98F
NEW YORK       PTSUNNY   50  24  36 SW9       30.17F
NEWARK         PTSUNNY   53  24  32 CALM      30.15F
CHICAGO        CLOUDY    51  45  79 S14       29.68F
HARTFORD       MOSUNNY   53  33  46 W12       30.14F
BOSTON         MOSUNNY   56  34  43 W7        30.11F
DALLAS         MOSUNNY   65  53  65 SW12G22   29.48F
PHILADELPHIA   PTSUNNY   51  25  36 S9        30.18F


USA.gov is the U.S. government's official web portal to all federal, state and local government web resources and services.